Dewpoint
7 7 7 7 7 7 7 5 6 6 5 5 4 4 4 5 5 4 4 4 4 4 4 4 4 5 3
8 8 7 7 7 7 6 6 6 5 5 5 5 5 5 5 5 5 5 5 4 4 5 5 5 4 4
8 8 8 7 7 6 6 6 6 6 5 6 5 5 5 5 5 5 5 5 5 5 5 5 5 5 5
8 8 8 7 8 8 7 7 6 6 5 5 5 5 5 5 5 5 5 5 5 5 5 5 5 5 5
8 8 8 8 8 7 7 6 6 6 6 5 5 6 5 5 6 5 4 4 4 5 5 4 4 4 5
8 8 8 8 8 7 6 7 6 6 6 6 5 5 5 4 4 3 3 3 4 4 4 4 4 4 4
7 7 7 8 7 8 7 7 7 6 5 4 3 2 1 2 3 3 3 4 4 3 3 4 4 4 4
7 7 7 6 7 7 6 6 6 6 4 2 1 1 2 4 4 4 3 3 4 4 4 4 4 4 4
7 7 7 7 6 6 6 6 6 4 3 3 2 1 2 2 3 4 3 2 2 3 3 3 3 4 4
7 6 6 6 6 6 5 5 4 4 4 4 3 3 3 3 2 2 1 1 2 3 3 3 3 3 3
6 6 6 5 5 5 5 5 5 5 4 3 4 4 3 3 3 3 1 1 1 2 2 2 2 2 2
5 6 6 5 5 5 5 5 4 4 3 3 3 3 2 2 3 2 2 2 2 2 2 2 1 2 1
5 5 4 4 4 4 4 4 3 3 3 3 3 2 2 2 2 2 1 1 1 1 1 0 0 1 -0
4 4 4 4 4 4 3 3 3 3 3 3 2 1 2 2 1 1 0 -0 0 -0 -1 -1 -1 -1 -2
3 3 3 3 3 3 3 3 3 3 3 2 1 1 1 1 1 0 -0 -1 -2 -2 -2 -2 -2 -2 -3
2 2 3 3 3 3 3 3 3 3 2 2 1 1 0 0 0 -1 -1 -2 -3 -3 -3 -3 -3 -3 -3
2 2 2 2 2 2 2 2 2 2 1 1 1 0 -0 -1 -1 -2 -3 -3 -4 -4 -4 -5 -5 -6 -8
Wind_Speed
28 27 27 26 31 30 28 29 31 29 29 30 30 31 31 32 31 30 31 31 30 31 33 32 32 31 31
33 31 29 29 30 29 32 34 32 33 32 31 31 33 33 34 34 35 36 36 36 37 37 37 36 35 34
39 38 33 35 36 33 32 32 32 32 33 34 34 34 34 33 33 33 33 34 36 37 38 39 40 38 37
39 35 34 36 38 37 34 31 32 32 31 31 31 33 34 33 34 34 35 35 36 37 39 39 40 41 40
40 37 38 40 40 36 35 33 33 32 31 30 31 33 36 34 34 33 33 33 34 36 35 36 39 40 42
42 41 44 41 37 35 34 34 33 32 31 30 30 31 30 29 31 33 36 37 36 35 37 40 39 39 39
41 40 37 39 37 34 35 32 32 28 26 23 24 28 30 32 31 27 28 31 32 34 36 36 36 38 38
37 36 34 31 32 33 30 29 29 28 25 29 27 30 28 27 28 32 32 31 32 32 32 32 33 35 36
36 34 29 29 27 29 28 26 28 30 29 30 29 30 31 31 29 27 28 29 29 29 30 33 34 34 35
33 28 27 28 28 27 26 27 29 27 27 29 30 25 26 29 26 22 21 24 25 24 24 24 26 29 31
33 32 30 26 27 26 27 26 27 29 27 26 26 24 25 28 26 26 24 25 28 28 28 29 29 29 30
32 35 30 28 27 28 27 26 28 27 25 26 28 26 24 27 27 27 27 27 28 26 27 25 23 24 25
33 30 29 28 28 27 27 28 26 25 24 25 25 25 24 25 27 27 27 25 23 24 24 24 22 21 23
31 28 26 26 26 26 26 26 25 24 24 25 24 23 23 24 24 24 23 19 20 21 20 20 17 16 17
27 25 24 25 26 25 25 24 25 24 23 24 24 22 22 22 22 22 21 20 19 18 16 15 13 14 17
24 23 23 24 24 24 23 23 24 24 24 24 23 21 21 20 22 21 20 18 15 14 12 12 12 12 14
19 19 20 21 23 22 21 22 24 24 24 23 23 22 21 21 20 16 16 14 12 11 11 13 14 14 16
Wind_Direction
241 234 239 238 230 223 216 224 234 225 224 227 235 241 243 246 248 251 256 260 262 263 267 271 271 274 279
238 234 234 223 220 217 226 236 234 232 235 236 237 241 246 249 250 251 252 256 261 262 263 266 268 269 269
238 231 231 226 225 226 233 233 235 239 240 240 243 245 246 248 251 254 256 257 259 262 264 266 268 269 268
234 233 229 224 224 230 228 229 235 238 238 240 244 247 249 250 256 258 258 262 261 263 264 265 267 267 267
227 233 231 218 219 222 228 229 237 238 242 247 248 249 252 255 257 259 260 262 267 265 268 268 268 266 266
226 229 233 228 220 223 222 227 236 239 242 246 251 254 255 259 260 263 265 264 262 263 266 267 265 262 264
225 225 224 221 222 221 224 230 234 238 244 246 250 261 268 267 266 267 270 268 267 268 268 267 266 262 261
229 228 224 225 223 230 239 237 239 242 243 256 267 274 273 272 263 268 273 270 269 267 267 265 267 268 269
220 220 221 219 222 223 228 231 232 235 244 258 266 273 272 272 274 272 276 276 275 274 271 269 267 267 265
200 204 211 213 214 223 227 234 241 250 254 262 270 275 282 284 282 277 282 283 284 280 278 275 273 269 269
197 199 207 216 224 233 239 241 241 249 257 265 273 275 272 274 273 276 282 282 284 277 278 278 276 272 268
209 207 207 218 227 232 235 240 244 250 254 256 261 265 273 279 275 276 280 285 282 278 276 275 274 271 264
203 217 223 226 228 227 228 234 241 247 252 254 256 264 268 272 275 281 282 281 277 275 276 276 272 263 246
217 218 220 219 219 219 225 232 238 246 250 250 252 260 262 266 271 275 277 275 279 279 279 279 275 263 256
207 208 211 216 221 224 228 232 237 242 247 243 248 251 256 261 265 268 272 274 276 278 277 277 272 262 251
205 207 212 218 222 224 228 232 237 240 242 243 247 250 251 257 263 268 268 269 271 272 271 273 276 275 272
200 206 211 216 219 222 226 231 234 235 239 244 246 247 252 253 258 260 258 257 258 261 269 277 284 284 282
Height
1485 1488 1492 1496 1498 1501 1504 1508 1511 1514 1516 1518 1521 1525 1528 1531 1533 1533 1533 1534 1535 1536 1536 1536 1536 1536 1536
1478 1482 1485 1489 1493 1496 1499 1502 1504 1508 1510 1512 1514 1518 1520 1523 1525 1526 1527 1527 1528 1529 1529 1529 1529 1529 1529
1469 1475 1477 1482 1486 1490 1494 1496 1499 1502 1504 1507 1508 1510 1513 1514 1516 1518 1519 1519 1520 1520 1520 1520 1520 1520 1521
1460 1466 1470 1474 1479 1483 1487 1489 1492 1495 1497 1500 1502 1504 1506 1507 1508 1510 1510 1510 1511 1511 1511 1511 1511 1511 1511
1451 1457 1461 1464 1469 1476 1480 1484 1487 1489 1491 1494 1496 1497 1499 1499 1500 1501 1502 1502 1502 1501 1502 1501 1501 1502 1502
1442 1448 1453 1459 1465 1468 1474 1476 1479 1483 1485 1487 1488 1489 1491 1492 1493 1493 1493 1492 1491 1491 1491 1490 1489 1490 1491
1433 1440 1446 1452 1458 1461 1466 1470 1473 1476 1478 1479 1481 1482 1484 1484 1485 1484 1484 1483 1482 1482 1481 1480 1479 1479 1479
1428 1435 1441 1448 1451 1456 1460 1463 1467 1469 1471 1470 1473 1474 1476 1475 1476 1476 1476 1474 1472 1471 1471 1470 1470 1469 1469
1422 1429 1436 1440 1446 1448 1451 1455 1457 1460 1464 1463 1465 1466 1467 1467 1466 1466 1466 1464 1463 1462 1461 1460 1460 1459 1458
1416 1422 1428 1433 1437 1441 1444 1447 1451 1454 1458 1459 1458 1460 1458 1457 1458 1458 1457 1457 1455 1454 1453 1451 1451 1449 1448
1410 1415 1420 1425 1430 1435 1437 1441 1444 1447 1450 1452 1450 1453 1453 1451 1450 1451 1450 1448 1447 1447 1445 1444 1442 1441 1439
1404 1409 1413 1419 1424 1427 1431 1434 1437 1440 1443 1445 1443 1445 1445 1443 1443 1443 1442 1440 1439 1439 1437 1435 1434 1433 1432
1395 1402 1408 1414 1417 1419 1423 1427 1430 1432 1435 1437 1437 1438 1438 1436 1436 1436 1435 1434 1432 1431 1429 1427 1426 1426 1427
1389 1396 1401 1406 1409 1412 1416 1420 1423 1425 1428 1430 1431 1431 1430 1431 1430 1429 1429 1428 1426 1425 1423 1421 1420 1420 1421
1384 1388 1393 1399 1404 1407 1410 1413 1416 1419 1421 1423 1424 1424 1424 1424 1424 1424 1424 1422 1421 1421 1419 1417 1417 1418 1419
1380 1383 1388 1392 1397 1401 1404 1407 1410 1412 1415 1416 1417 1418 1418 1417 1419 1419 1419 1418 1417 1416 1416 1415 1415 1416 1416
1375 1379 1383 1388 1392 1394 1397 1400 1403 1405 1407 1409 1411 1411 1410 1411 1414 1414 1415 1414 1413 1413 1413 1413 1413 1413 1412